User: anonymous   Login
Location: Plum
(40.5000°N, 79.7500°W)
Time: 11:21:08
(UTC-04:00)
Language:

Cosmos 1825 - Orbit

View from above orbital plane
View from above orbital plane
View from above satellite
View from above satellite

Ground track
Ground track

The orbit data is extracted from the following two-line orbital elements,

1 17566U 87024A   17086.87233604 +.00001522 +00000-0 +72236-4 0  9995
2 17566 082.5081 010.7650 0005089 123.9246 236.2472 15.18524113641210
Epoch (UTC): 27 March 2017 20:56:09
Eccentricity: 0.0005089
inclination: 82.5081°
perigee height: 507 km
apogee height: 514 km
right ascension of ascending node: 10.7650°
argument of perigee: 123.9246°
revolutions per day: 15.18524113
mean anomaly at epoch: 236.2472°
orbit number at epoch: 64121

The dashed part of the orbit path shows where the satellite is in the earth's shadow,  

DLR